FW4334 Weather Reports


Display with metric or nautical units.
time (UTC)temp
F
wind
direction
speed
MPH
gust
MPH
rain 1hr
in
rain 24hr
in
rain mn
in
humidity
%
barometer
mb
20260904154520 87 144 1.0 5.0 0.00 0.23 0.00 84 1016.4
20260904154017 86 202 2.0 5.0 0.00 0.23 0.00 85 1016.3
20260904153517 86 124 0.0 3.0 0.00 0.23 0.00 86 1016.3
20260904153020 85 158 0.0 2.0 0.00 0.23 0.00 87 1016.4
20260904152518 85 269 1.0 3.0 0.00 0.23 0.00 87 1016.4
20260904152013 85 205 1.0 3.0 0.00 0.23 0.00 87 1016.3
20260904151514 85 189 1.0 3.0 0.00 0.23 0.00 88 1016.3
20260904151013 84 188 0.0 3.0 0.00 0.23 0.00 88 1016.2
20260904150511 84 187 0.0 3.0 0.00 0.23 0.00 88 1016.2
20260904150011 84 130 0.0 0.0 0.00 0.23 0.00 88 1016.1
20260904145508 84 130 0.0 0.0 0.00 0.35 0.00 89 1016.2
20260904145005 83 130 0.0 2.0 0.00 0.35 0.00 89 1016.2
20260904144506 83 130 0.0 2.0 0.00 0.35 0.00 89 1016.1
20260904144006 83 156 0.0 0.0 0.00 0.35 0.00 89 1016.0
20260904143505 82 157 0.0 0.0 0.00 0.35 0.00 89 1016.0
20260904143003 82 200 0.0 0.0 0.00 0.35 0.00 90 1016.0
20260904142502 82 202 0.0 0.0 0.00 0.35 0.00 90 1016.0
20260904142000 82 203 0.0 0.0 0.00 0.35 0.00 90 1015.9
20260904141601 81 205 0.0 6.0 0.00 0.35 0.00 91 1015.8
20260904141058 81 205 0.0 6.0 0.00 0.35 0.00 91 1015.8
20260904140558 81 194 1.0 3.0 0.00 0.35 0.00 91 1016.0
20260904140057 81 140 0.0 1.0 0.00 0.35 0.00 92 1015.8
20260904135556 80 185 0.0 4.0 0.00 0.35 0.00 92 1015.9
20260904135055 80 186 0.0 5.0 0.00 0.35 0.00 93 1015.8
20260904134555 80 201 0.0 5.0 0.00 0.35 0.00 93 1016.1
20260904134055 80 119 0.0 0.0 0.00 0.35 0.00 94 1016.0
20260904133553 79 117 0.0 0.0 0.00 0.35 0.00 95 1015.9
20260904133105 79 117 0.0 0.0 0.00 0.35 0.00 95 1015.8
20260904132553 79 117 0.0 0.0 0.00 0.35 0.00 95 1015.9
20260904132051 79 117 0.0 0.0 0.00 0.35 0.00 95 1015.9
20260904131552 79 117 0.0 0.0 0.00 0.35 0.00 95 1015.9
20260904131052 79 117 0.0 0.0 0.00 0.35 0.00 95 1016.0
20260904130553 79 117 0.0 0.0 0.00 0.35 0.00 95 1015.9
20260904130049 78 117 0.0 0.0 0.00 0.35 0.00 95 1015.8
20260904125552 78 117 0.0 0.0 0.00 0.35 0.00 95 1015.8
20260904125048 78 117 0.0 0.0 0.00 0.35 0.00 95 1015.8
20260904124554 78 117 0.0 0.0 0.00 0.35 0.00 95 1015.8
20260904124046 78 117 0.0 0.0 0.00 0.35 0.00 95 1015.7
20260904123547 78 117 0.0 0.0 0.00 0.35 0.00 95 1015.8
20260904123106 77 117 0.0 0.0 0.00 0.35 0.00 95 1015.7
20260904122549 77 117 0.0 0.0 0.00 0.35 0.00 95 1015.6
20260904122048 77 117 0.0 0.0 0.00 0.35 0.00 95 1015.5
20260904121544 77 117 0.0 0.0 0.00 0.35 0.00 95 1015.7
20260904121047 76 117 0.0 0.0 0.00 0.35 0.00 95 1015.5
20260904120545 76 117 0.0 0.0 0.00 0.35 0.00 95 1015.5
20260904120042 76 117 0.0 0.0 0.00 0.35 0.00 95 1015.4
20260904115541 76 117 0.0 0.0 0.00 0.35 0.00 95 1015.5
20260904115041 76 117 0.0 0.0 0.00 0.35 0.00 95 1015.4
20260904114541 76 117 0.0 0.0 0.00 0.35 0.00 95 1015.4
20260904114041 76 117 0.0 0.0 0.00 0.35 0.00 95 1015.4
20260904113542 76 117 0.0 0.0 0.00 0.35 0.00 95 1015.3
20260904113049 76 117 0.0 0.0 0.00 0.35 0.00 95 1015.2
20260904112540 76 117 0.0 0.0 0.00 0.35 0.00 95 1015.2
20260904112042 76 117 0.0 0.0 0.00 0.35 0.00 95 1015.2
20260904111539 76 117 0.0 0.0 0.00 0.35 0.00 95 1015.0
20260904111039 76 117 0.0 0.0 0.00 0.35 0.00 95 1015.0
20260904110539 76 124 0.0 0.0 0.00 0.35 0.00 95 1015.0
20260904110044 76 124 0.0 0.0 0.00 0.35 0.00 95 1014.9
20260904105538 76 124 0.0 0.0 0.00 0.35 0.00 95 1014.9
20260904105038 76 124 0.0 0.0 0.00 0.35 0.00 95 1014.8
20260904104537 76 124 0.0 0.0 0.00 0.35 0.00 95 1014.8
20260904104037 76 124 0.0 0.0 0.00 0.35 0.00 95 1014.8
20260904103536 76 124 0.0 0.0 0.00 0.35 0.00 95 1014.9
20260904103036 76 124 0.0 0.0 0.00 0.35 0.00 95 1015.0
20260904102536 76 124 0.0 0.0 0.00 0.35 0.00 95 1014.9
20260904102035 76 124 0.0 0.0 0.00 0.35 0.00 95 1014.9
20260904101536 76 124 0.0 0.0 0.00 0.35 0.00 95 1014.8
20260904101035 76 124 0.0 0.0 0.00 0.35 0.00 95 1014.7
20260904100534 76 124 0.0 0.0 0.00 0.35 0.00 95 1014.6
20260904100040 76 124 0.0 0.0 0.00 0.35 0.00 94 1014.6
20260904095535 76 124 0.0 0.0 0.00 0.35 0.00 94 1014.6
20260904095034 76 124 0.0 0.0 0.00 0.35 0.00 94 1014.6
20260904094533 76 124 0.0 0.0 0.00 0.35 0.00 94 1014.5
20260904094033 76 124 0.0 0.0 0.00 0.35 0.00 94 1014.5
20260904093536 76 124 0.0 0.0 0.00 0.35 0.00 94 1014.5
20260904093049 76 124 0.0 0.0 0.00 0.35 0.00 94 1014.5
20260904092536 76 124 0.0 0.0 0.00 0.35 0.00 94 1014.3
20260904092033 76 124 0.0 0.0 0.00 0.35 0.00 94 1014.4
20260904091533 76 124 0.0 0.0 0.00 0.35 0.00 94 1014.4
20260904091033 76 124 0.0 0.0 0.00 0.35 0.00 94 1014.5
20260904090533 76 124 0.0 0.0 0.00 0.35 0.00 94 1014.3
20260904090032 76 124 0.0 0.0 0.00 0.35 0.00 94 1014.4
20260904085532 76 124 0.0 0.0 0.00 0.35 0.00 94 1014.3
20260904085034 76 124 0.0 0.0 0.00 0.35 0.00 94 1014.4
20260904084532 76 124 0.0 0.0 0.00 0.35 0.00 94 1014.4
20260904084031 76 124 0.0 0.0 0.00 0.35 0.00 94 1014.5
20260904083531 76 124 0.0 0.0 0.00 0.35 0.00 94 1014.4
20260904083031 76 124 0.0 0.0 0.00 0.35 0.00 94 1014.3
20260904082531 76 124 0.0 0.0 0.00 0.35 0.00 94 1014.3
20260904082030 76 124 0.0 0.0 0.00 0.35 0.00 94 1014.3
20260904081530 76 124 0.0 0.0 0.00 0.35 0.00 94 1014.4
20260904081031 76 124 0.0 0.0 0.00 0.35 0.00 94 1014.4
20260904080529 76 124 0.0 0.0 0.00 0.35 0.00 94 1014.5
20260904080028 76 124 0.0 0.0 0.00 0.35 0.00 94 1014.4
20260904075529 76 124 0.0 0.0 0.00 0.35 0.00 94 1014.4
20260904075028 76 124 0.0 0.0 0.00 0.35 0.00 94 1014.3
20260904074530 76 124 0.0 0.0 0.00 0.35 0.00 94 1014.2
20260904074028 76 124 0.0 0.0 0.00 0.35 0.00 94 1014.2
20260904073528 76 124 0.0 0.0 0.00 0.35 0.00 94 1014.4
20260904073028 76 124 0.0 0.0 0.00 0.35 0.00 94 1014.5
20260904072527 76 124 0.0 0.0 0.00 0.35 0.00 94 1014.3
20260904072027 76 124 0.0 0.0 0.00 0.35 0.00 94 1014.3
20260904071527 76 124 0.0 0.0 0.00 0.35 0.00 94 1014.3
20260904071027 76 124 0.0 0.0 0.00 0.35 0.00 94 1014.2
20260904070529 76 124 0.0 0.0 0.00 0.35 0.00 94 1014.3
20260904070038 76 124 0.0 0.0 0.00 0.35 0.00 94 1014.5
20260904065525 76 124 0.0 0.0 0.00 0.35 0.00 94 1014.4
20260904065025 76 124 0.0 0.0 0.00 0.35 0.00 94 1014.4
20260904064528 77 124 0.0 0.0 0.00 0.35 0.00 94 1014.3
20260904064024 77 124 0.0 0.0 0.00 0.35 0.00 94 1014.4
20260904063524 77 124 0.0 0.0 0.00 0.35 0.00 93 1014.3
20260904063024 77 124 0.0 0.0 0.00 0.35 0.00 94 1014.4
20260904062524 77 124 0.0 0.0 0.00 0.35 0.00 93 1014.4
20260904062023 77 124 0.0 0.0 0.00 0.35 0.00 93 1014.4
20260904061522 77 124 0.0 0.0 0.00 0.35 0.00 94 1014.6
20260904061022 77 124 0.0 0.0 0.00 0.35 0.00 93 1014.6
20260904060522 77 124 0.0 0.0 0.00 0.35 0.00 93 1014.6
20260904060022 77 124 0.0 0.0 0.00 0.35 0.00 93 1014.7
20260904055519 77 124 0.0 0.0 0.00 0.36 0.00 93 1014.7
20260904055019 77 124 0.0 0.0 0.00 0.36 0.00 93 1014.7
20260904054529 77 124 0.0 0.0 0.00 0.36 0.00 93 1014.8
20260904054017 77 124 0.0 0.0 0.00 0.36 0.00 93 1014.9
20260904053517 77 124 0.0 0.0 0.00 0.36 0.00 93 1015.0
20260904053017 78 124 0.0 0.0 0.00 0.36 0.00 93 1015.1
20260904052516 78 124 0.0 0.0 0.00 0.36 0.00 93 1015.0
20260904052016 78 124 0.0 0.0 0.00 0.36 0.00 93 1015.1
20260904051516 78 124 0.0 0.0 0.00 0.36 0.00 93 1015.1
20260904051020 78 124 0.0 0.0 0.00 0.36 0.00 93 1015.0
20260904050515 78 124 0.0 0.0 0.00 0.36 0.00 93 1015.1
20260904050019 78 124 0.0 0.0 0.00 0.36 0.00 93 1015.1
20260904045514 78 124 0.0 0.0 0.00 0.36 0.00 93 1015.1
20260904045014 78 124 0.0 0.0 0.00 0.36 0.00 93 1015.2
20260904044524 78 124 0.0 0.0 0.00 0.36 0.00 93 1015.2
20260904044014 78 124 0.0 0.0 0.00 0.36 0.00 93 1015.3
20260904043513 78 124 0.0 0.0 0.00 0.36 0.00 93 1015.1
20260904043016 78 124 0.0 0.0 0.00 0.36 0.00 93 1015.2
20260904042513 78 124 0.0 0.0 0.00 0.36 0.00 93 1015.2
20260904042013 78 124 0.0 0.0 0.00 0.36 0.00 93 1015.2
20260904041512 78 124 0.0 0.0 0.00 0.36 0.00 93 1015.2
20260904041013 78 124 0.0 0.0 0.00 0.36 0.00 93 1015.3
20260904040513 78 124 0.0 0.0 0.00 0.36 0.00 93 1015.2
20260904040008 78 124 0.0 0.0 0.00 0.36 0.00 93 1015.2
20260904035512 78 124 0.0 0.0 0.00 0.36 0.36 93 1015.1
20260904035008 78 124 0.0 0.0 0.00 0.36 0.36 93 1015.3
20260904034512 78 124 0.0 0.0 0.00 0.36 0.36 93 1015.3
20260904034008 78 124 0.0 0.0 0.00 0.36 0.36 93 1015.2
20260904033508 78 124 0.0 0.0 0.00 0.36 0.36 93 1015.1
20260904033008 78 124 0.0 0.0 0.00 0.36 0.36 93 1015.2
20260904032507 78 124 0.0 0.0 0.00 0.36 0.36 93 1015.4
20260904032007 78 124 0.0 0.0 0.00 0.36 0.36 93 1015.5
20260904031512 78 124 0.0 0.0 0.00 0.36 0.36 93 1015.3
20260904031007 78 124 0.0 0.0 0.00 0.36 0.36 93 1015.2
20260904030507 78 124 0.0 0.0 0.00 0.36 0.36 93 1015.2
20260904030007 78 124 0.0 0.0 0.00 0.36 0.36 93 1015.3
20260904025507 78 124 0.0 0.0 0.00 0.36 0.36 93 1015.3
20260904025007 78 124 0.0 0.0 0.00 0.36 0.36 92 1015.3
20260904024507 78 124 0.0 0.0 0.00 0.36 0.36 92 1015.3
20260904024007 78 124 0.0 0.0 0.00 0.36 0.36 92 1015.3
20260904023507 78 124 0.0 0.0 0.00 0.36 0.36 92 1015.4
20260904023006 78 124 0.0 0.0 0.00 0.36 0.36 92 1015.2
20260904022507 78 124 0.0 0.0 0.00 0.36 0.36 92 1015.1
20260904022008 78 124 0.0 0.0 0.00 0.36 0.36 92 1015.1
20260904021505 78 124 0.0 0.0 0.00 0.36 0.36 92 1015.2
20260904021006 78 124 0.0 0.0 0.00 0.36 0.36 92 1015.2
20260904020505 79 124 0.0 0.0 0.00 0.36 0.36 92 1015.1
20260904020005 79 124 0.0 0.0 0.00 0.36 0.36 92 1015.1
20260904015504 79 124 0.0 0.0 0.00 0.36 0.36 92 1015.1
20260904015004 79 124 0.0 0.0 0.00 0.36 0.36 92 1015.1
20260904014504 79 124 0.0 0.0 0.00 0.36 0.36 92 1015.1
20260904014005 79 124 0.0 0.0 0.00 0.36 0.36 91 1015.1
20260904013503 79 124 0.0 0.0 0.00 0.36 0.36 91 1014.9
20260904013003 79 124 0.0 0.0 0.00 0.36 0.36 91 1014.8
20260904012503 79 124 0.0 0.0 0.00 0.36 0.36 91 1014.9
20260904012003 80 124 0.0 0.0 0.00 0.36 0.36 91 1014.7
20260904011509 80 124 0.0 0.0 0.00 0.36 0.36 91 1014.6
20260904011002 80 124 0.0 0.0 0.00 0.36 0.36 91 1014.6
20260904010501 80 124 0.0 0.0 0.00 0.36 0.36 91 1014.5
20260904010002 80 124 0.0 0.0 0.00 0.36 0.36 91 1014.5
20260904005501 80 124 0.0 0.0 0.00 0.36 0.36 90 1014.7
20260904005100 80 124 0.0 4.0 0.00 0.36 0.36 90 1014.7
20260904004600 80 126 0.0 4.0 0.00 0.36 0.36 90 1014.6
20260904004100 80 124 0.0 0.0 0.00 0.36 0.36 90 1014.5
20260904003559 80 125 0.0 0.0 0.00 0.36 0.36 90 1014.5
20260904003059 81 125 0.0 0.0 0.00 0.36 0.36 90 1014.3
20260904002559 81 125 0.0 0.0 0.00 0.36 0.36 90 1014.4
20260904002059 81 125 0.0 0.0 0.00 0.36 0.36 90 1014.5
20260904001600 81 125 0.0 0.0 0.00 0.36 0.36 90 1014.5
20260904001059 81 125 0.0 0.0 0.00 0.36 0.36 90 1014.5
20260904000601 81 125 0.0 0.0 0.00 0.36 0.36 90 1014.6
20260903235557 81 125 0.0 0.0 0.00 0.36 0.36 89 1014.5
20260903235057 82 125 0.0 0.0 0.00 0.36 0.36 89 1014.4
20260903234558 82 125 0.0 0.0 0.00 0.36 0.36 89 1014.3
20260903234058 82 125 0.0 0.0 0.00 0.36 0.36 88 1014.2
20260903233558 82 125 0.0 0.0 0.00 0.36 0.36 88 1014.2
20260903233058 82 125 0.0 0.0 0.00 0.36 0.36 88 1014.2
20260903232557 83 125 0.0 0.0 0.00 0.36 0.36 87 1014.2
20260903232057 83 125 0.0 0.0 0.00 0.36 0.36 87 1014.3
20260903231558 83 125 0.0 0.0 0.00 0.36 0.36 87 1014.3
20260903231056 83 125 0.0 0.0 0.00 0.36 0.36 87 1014.3
20260903230556 83 125 0.0 0.0 0.00 0.36 0.36 87 1014.2
20260903230056 83 125 0.0 0.0 0.00 0.36 0.36 88 1014.2
20260903225556 83 125 0.0 0.0 0.00 0.36 0.36 88 1014.1
20260903225058 83 125 0.0 1.0 0.00 0.36 0.36 88 1014.1
20260903224557 83 125 0.0 1.0 0.00 0.36 0.36 88 1014.1
20260903224055 83 117 0.0 0.0 0.00 0.36 0.36 88 1014.1
20260903223555 83 117 0.0 0.0 0.00 0.36 0.36 88 1014.0
20260903223055 83 117 0.0 0.0 0.00 0.36 0.36 87 1014.0
20260903222555 83 117 0.0 0.0 0.00 0.36 0.36 87 1013.9
20260903222055 83 117 0.0 0.0 0.00 0.36 0.36 87 1013.7
20260903221556 83 117 0.0 0.0 0.00 0.36 0.36 87 1013.7
20260903221055 83 116 0.0 0.0 0.00 0.36 0.36 87 1013.7
20260903220556 83 116 0.0 0.0 0.00 0.36 0.36 87 1013.7
20260903220104 83 116 0.0 1.0 0.00 0.36 0.36 87 1013.6
20260903215553 83 116 0.0 1.0 0.00 0.41 0.36 87 1013.7
20260903215054 83 121 0.0 0.0 0.00 0.41 0.36 87 1013.8
20260903214553 83 121 0.0 0.0 0.00 0.41 0.36 88 1013.8
20260903214053 83 121 0.0 0.0 0.00 0.41 0.36 88 1013.7
20260903213552 83 121 0.0 0.0 0.00 0.41 0.36 88 1013.6
20260903213058 83 121 0.0 1.0 0.00 0.41 0.36 88 1013.7
20260903212557 83 121 0.0 1.0 0.00 0.41 0.36 88 1013.7
20260903212053 83 121 0.0 0.0 0.00 0.41 0.36 88 1013.8
20260903211558 83 120 0.0 0.0 0.00 0.41 0.36 88 1013.8
20260903211052 83 120 0.0 0.0 0.00 0.41 0.36 88 1013.8
20260903210552 83 120 0.0 0.0 0.00 0.41 0.36 88 1013.6
20260903210059 83 120 0.0 0.0 0.00 0.41 0.36 88 1013.7
20260903205550 83 120 0.0 3.0 0.00 0.71 0.36 87 1013.9
20260903205050 83 120 0.0 3.0 0.00 0.71 0.36 87 1013.9
20260903204550 83 72 0.0 2.0 0.00 0.71 0.36 88 1014.0
20260903204050 83 72 0.0 2.0 0.00 0.71 0.36 87 1014.0
20260903203550 83 95 0.0 0.0 0.00 0.71 0.36 88 1014.0
20260903203112 83 98 0.0 0.0 0.00 0.71 0.36 87 1013.9
20260903202548 83 111 0.0 2.0 0.00 0.71 0.36 88 1014.1
20260903202048 83 117 0.0 2.0 0.00 0.71 0.36 87 1014.1
20260903201548 84 102 0.0 0.0 0.00 0.71 0.36 87 1014.2
20260903201047 84 102 0.0 2.0 0.00 0.71 0.36 88 1014.3
20260903200548 84 138 0.0 2.0 0.00 0.71 0.36 87 1014.4
20260903200048 84 106 0.0 2.0 0.00 0.71 0.36 87 1014.5
20260903195550 84 22 0.0 1.0 0.00 0.73 0.36 88 1014.5
20260903195047 84 22 0.0 2.0 0.00 0.73 0.36 87 1014.6
20260903194555 84 120 0.0 0.0 0.00 0.73 0.36 88 1014.6
20260903194046 84 120 0.0 0.0 0.00 0.73 0.36 87 1014.8
20260903193549 84 120 0.0 0.0 0.00 0.73 0.36 88 1014.8
20260903193047 84 120 0.0 4.0 0.00 0.73 0.36 87 1014.7
20260903192549 84 120 1.0 4.0 0.00 0.73 0.36 88 1014.7
20260903192046 84 24 0.0 3.0 0.00 0.73 0.36 89 1014.7
20260903191544 84 26 0.0 3.0 0.00 0.73 0.36 89 1014.8
20260903191044 84 63 0.0 3.0 0.00 0.73 0.36 89 1015.0
20260903190546 84 25 0.0 3.0 0.00 0.73 0.36 90 1014.8
20260903190041 83 127 0.0 4.0 0.00 0.73 0.36 90 1014.9
20260903185539 83 127 2.0 4.0 0.00 0.73 0.36 89 1015.1
20260903185038 83 56 0.0 1.0 0.00 0.73 0.36 90 1015.2
20260903184536 83 57 0.0 3.0 0.00 0.73 0.36 90 1015.2
20260903184036 82 30 0.0 2.0 0.00 0.73 0.36 90 1015.0
20260903183534 82 78 0.0 3.0 0.00 0.73 0.36 90 1015.1
20260903183041 81 58 0.0 3.0 0.00 0.73 0.36 91 1015.3
20260903182535 81 76 0.0 0.0 0.00 0.73 0.36 91 1015.3
20260903182036 81 73 0.0 3.0 0.00 0.73 0.36 91 1015.3
20260903181535 81 50 0.0 3.0 0.00 0.73 0.36 92 1015.5
20260903181033 81 45 0.0 0.0 0.00 0.73 0.36 92 1015.6
20260903180534 80 46 0.0 4.0 0.00 0.73 0.36 93 1015.6
20260903180032 80 26 1.0 4.0 0.00 0.73 0.36 93 1015.6
20260903175534 80 28 0.0 2.0 0.00 0.73 0.36 94 1015.7
20260903175032 80 61 0.0 2.0 0.00 0.73 0.36 94 1015.7
20260903174532 79 51 0.0 0.0 0.01 0.73 0.36 95 1015.8
20260903174033 79 126 0.0 0.0 0.01 0.73 0.36 94 1015.7
20260903173533 79 126 0.0 0.0 0.02 0.73 0.36 95 1015.8
20260903173032 79 126 0.0 0.0 0.02 0.73 0.36 95 1015.8
20260903172532 78 127 0.0 0.0 0.02 0.73 0.36 95 1015.9
20260903172032 78 127 0.0 0.0 0.02 0.73 0.36 94 1016.0
20260903171545 77 127 0.0 0.0 0.05 0.73 0.36 94 1016.1
20260903171031 77 127 0.0 0.0 0.08 0.73 0.36 94 1016.2
20260903170531 77 127 0.0 0.0 0.08 0.73 0.36 94 1016.3
20260903170031 77 127 0.0 0.0 0.09 0.73 0.36 94 1016.4
20260903165530 77 127 0.0 0.0 0.11 0.73 0.36 94 1016.6
20260903165029 77 127 0.0 0.0 0.11 0.73 0.36 94 1016.7
20260903164532 77 127 0.0 0.0 0.10 0.72 0.35 94 1016.7
20260903164130 77 127 0.0 2.0 0.10 0.72 0.35 94 1016.9
20260903163530 76 127 0.0 2.0 0.09 0.71 0.34 94 1017.0
20260903163028 76 126 0.0 2.0 0.09 0.71 0.34 94 1017.1
20260903162528 77 126 0.0 4.0 0.10 0.71 0.34 93 1017.0
20260903162029 77 126 1.0 4.0 0.10 0.71 0.34 93 1016.9
20260903161529 77 121 1.0 7.0 0.06 0.67 0.30 93 1016.9
20260903161028 77 121 3.0 7.0 0.06 0.65 0.28 93 1016.9
20260903160530 77 119 0.0 8.0 0.12 0.65 0.28 93 1016.8
20260903160032 78 113 1.0 8.0 0.13 0.64 0.27 93 1016.9
20260903155531 78 121 1.0 8.0 0.15 0.62 0.25 93 1017.0
20260903155026 78 138 0.0 0.0 0.23 0.62 0.25 93 1017.0